Temp
3 3 3 3 3 3 3 3 3 3 3 2 3 3 2 2 2 3 4 5 6 7 7 7 8 8 8 7 10 10 11 10 10 10 10 11 13 14 14 15 16 16 17 18 18 18 17
3 3 3 3 3 2 3 3 2 2 2 2 2 2 2 2 2 2 3 4 5 7 7 7 7 7 8 9 10 9 11 9 10 10 11 11 13 14 15 16 16 17 16 16 17 17 17
3 3 3 3 2 2 2 2 3 3 2 2 2 2 2 2 2 2 3 4 5 6 7 6 7 7 7 9 9 9 10 10 11 11 11 11 12 13 14 14 14 15 13 14 15 16 16
3 2 2 2 3 2 2 2 2 2 2 2 2 2 2 2 1 1 3 3 4 6 7 6 6 6 7 9 9 9 9 10 10 11 11 11 11 11 12 12 14 13 13 12 16 16 16
2 2 2 2 2 2 2 2 2 2 2 2 2 2 1 2 1 1 2 3 4 6 7 6 5 6 8 9 9 9 9 10 10 10 11 11 10 11 12 11 12 13 12 13 15 17 17
2 2 2 2 2 2 2 2 2 2 1 2 2 2 2 2 2 2 2 3 5 5 6 5 6 6 7 8 9 9 9 10 10 11 10 10 10 11 11 11 11 13 12 13 15 16 16
2 2 2 2 2 2 1 1 1 2 2 1 2 1 2 1 2 2 2 2 5 5 6 6 6 9 9 9 8 8 9 10 10 11 11 11 10 10 11 12 13 14 14 14 14 16 15
1 1 1 2 2 2 1 1 1 1 1 2 1 1 1 1 2 2 2 2 4 3 5 7 7 9 9 8 9 9 9 10 10 9 11 11 9 13 14 14 13 13 12 12 14 15 13
1 1 1 2 1 1 0 0 1 1 1 1 1 1 1 1 1 2 2 2 3 2 5 6 7 8 8 9 9 9 9 10 10 10 10 11 12 13 13 13 12 11 11 11 11 12 12
1 1 1 1 1 1 0 0 1 0 1 1 1 1 2 1 1 2 2 3 2 1 4 6 7 8 8 9 10 9 10 11 11 9 11 10 12 12 11 11 12 11 13 12 12 10 9
1 1 1 1 0 0 0 0 1 0 0 0 1 1 2 1 1 1 2 2 2 2 6 6 7 8 8 10 9 9 9 11 11 11 11 10 11 11 10 11 12 11 11 11 11 9 9
1 1 1 0 0 0 1 -0 0 0 0 1 1 2 2 2 2 2 2 2 2 3 6 6 6 8 8 10 10 9 9 9 10 12 11 11 12 11 11 12 11 11 10 10 9 9 7
0 0 1 1 0 0 0 0 0 0 0 1 1 1 2 2 2 2 2 2 3 5 5 5 6 8 8 9 9 9 8 8 8 7 7 9 10 11 11 10 11 10 9 6 6 7 6
0 1 1 1 0 0 -0 0 -0 -0 0 1 1 1 2 2 2 2 2 3 5 6 6 8 7 8 8 9 8 8 8 7 9 9 8 7 8 10 10 9 9 9 9 6 8 8 9
0 1 1 0 0 0 -0 0 -0 -0 1 1 2 2 2 2 2 2 3 4 5 6 8 7 8 6 7 9 9 8 8 8 9 9 8 8 9 11 10 11 10 9 7 9 7 8 5
-0 0 1 0 0 0 -0 -0 -0 0 1 2 2 2 2 2 2 2 3 6 4 6 9 9 8 9 7 7 8 8 8 10 9 10 10 10 9 10 10 11 10 9 10 7 6 5 7
-0 -0 0 -0 -0 0 -0 -0 -0 0 2 2 2 2 2 2 2 3 4 6 6 6 10 8 9 9 9 8 9 9 9 11 11 10 11 10 9 8 7 7 8 8 7 8 8 7 7
-0 -0 -0 -0 -0 0 0 -1 0 1 2 2 1 2 2 2 2 2 5 6 6 6 10 11 11 10 10 10 9 10 10 11 12 11 10 10 8 5 6 10 9 10 8 8 6 6 7
-1 -0 -0 -0 -0 0 -0 0 1 1 2 3 2 2 2 2 4 4 4 5 6 8 10 10 11 11 11 10 9 11 11 10 10 10 10 9 6 5 7 9 9 8 9 10 8 6 6
-0 -0 -0 -1 -1 0 -0 1 2 2 3 3 3 2 2 2 3 4 5 6 7 8 10 11 11 12 11 10 12 10 9 9 10 10 9 10 8 6 5 7 8 5 7 9 8 6 7
-1 -1 -1 -1 -1 -0 -0 1 2 2 3 4 4 3 4 4 6 5 6 7 7 9 10 11 11 12 11 10 9 10 9 8 9 8 9 8 5 6 6 8 7 6 7 8 6 6 6
-1 -1 -1 -1 -1 -1 -0 0 1 2 4 3 3 3 5 6 7 8 6 6 8 10 10 10 10 10 11 10 9 9 9 9 9 9 8 8 5 6 5 7 8 7 8 9 9 8 8
-1 -1 -1 -1 -1 -1 -1 -0 0 0 1 2 3 3 3 7 8 9 9 8 10 10 9 10 10 10 9 9 9 8 9 10 9 8 8 7 5 6 5 8 8 9 10 9 8 9 8
-1 -1 -1 -2 -2 -1 -1 -1 0 -1 -0 1 1 2 3 6 7 9 10 10 10 10 9 9 10 10 8 8 8 8 7 7 8 8 8 6 6 7 5 7 8 11 10 10 10 10 9
-1 -1 -2 -2 -2 -2 -2 -2 -1 0 -1 1 2 2 3 6 8 9 10 10 9 9 9 8 8 7 7 8 9 8 8 7 7 7 7 6 6 7 6 8 9 11 12 11 9 9 9
-1 -1 -2 -2 -2 -2 -2 -3 -2 -1 1 1 2 2 3 4 8 10 10 10 9 9 8 7 6 7 7 7 7 7 8 10 8 6 8 6 6 7 7 7 8 12 11 11 10 9 10
-1 -2 -2 -2 -2 -3 -2 -2 -2 -2 1 1 2 2 3 4 7 9 9 9 9 9 7 7 6 6 6 7 7 7 8 10 9 8 7 6 6 6 7 7 8 11 11 11 9 10 10
-2 -2 -2 -2 -2 -3 -2 -2 -2 -2 0 -0 2 2 2 4 6 7 8 9 9 8 8 6 6 6 5 7 6 7 7 9 9 9 8 7 7 7 6 7 7 13 12 12 10 11 10
-2 -2 -2 -2 -2 -3 -3 -2 -2 -2 -1 -1 1 2 2 3 5 7 7 8 8 8 8 7 8 8 8 7 6 6 7 8 9 9 11 9 10 9 8 8 11 14 13 12 10 9 8
Height
1515 1512 1508 1504 1501 1496 1492 1488 1485 1481 1478 1475 1473 1470 1466 1462 1460 1457 1455 1454 1456 1457 1457 1459 1461 1461 1463 1466 1463 1458 1460 1462 1465 1468 1471 1475 1477 1477 1478 1476 1476 1477 1477 1474 1473 1472 1474
1513 1510 1507 1504 1499 1495 1490 1485 1481 1477 1474 1471 1469 1466 1462 1459 1456 1453 1451 1451 1451 1452 1453 1456 1459 1459 1462 1462 1459 1458 1460 1462 1463 1467 1469 1471 1474 1475 1475 1473 1474 1474 1475 1475 1473 1471 1474
1512 1509 1505 1502 1496 1491 1488 1484 1477 1473 1470 1467 1464 1461 1458 1454 1452 1449 1446 1446 1445 1447 1450 1452 1454 1455 1459 1456 1455 1456 1458 1461 1463 1466 1466 1469 1471 1474 1473 1475 1474 1475 1479 1476 1472 1470 1471
1509 1506 1500 1496 1493 1488 1483 1480 1474 1468 1465 1462 1459 1456 1452 1449 1447 1445 1442 1441 1441 1443 1445 1448 1451 1455 1453 1449 1452 1454 1456 1459 1461 1463 1466 1468 1471 1474 1473 1477 1477 1479 1478 1482 1462 1461 1463
1507 1502 1498 1493 1489 1485 1480 1473 1468 1464 1460 1457 1453 1451 1448 1444 1441 1440 1438 1437 1437 1438 1441 1442 1449 1452 1449 1444 1448 1451 1455 1457 1460 1463 1465 1468 1472 1473 1475 1477 1479 1476 1480 1471 1463 1456 1457
1504 1500 1495 1491 1485 1481 1474 1468 1463 1459 1456 1452 1449 1447 1444 1440 1438 1436 1434 1432 1432 1433 1438 1439 1446 1453 1443 1440 1443 1448 1452 1456 1459 1463 1466 1468 1471 1472 1473 1474 1479 1472 1475 1468 1462 1456 1457
1501 1496 1492 1486 1481 1476 1471 1465 1459 1455 1450 1447 1444 1442 1440 1436 1435 1433 1432 1429 1432 1433 1427 1427 1432 1433 1429 1437 1441 1447 1450 1455 1459 1463 1463 1466 1468 1469 1469 1468 1466 1461 1464 1465 1460 1454 1457
1499 1494 1488 1482 1476 1472 1467 1461 1456 1451 1447 1443 1441 1438 1436 1433 1431 1430 1429 1429 1428 1430 1425 1425 1429 1433 1435 1435 1441 1446 1450 1454 1458 1461 1461 1468 1469 1462 1462 1461 1464 1463 1467 1470 1463 1459 1462
1496 1491 1484 1478 1472 1467 1462 1457 1452 1448 1444 1440 1437 1435 1433 1430 1427 1427 1426 1426 1426 1426 1424 1424 1427 1431 1434 1437 1438 1443 1449 1452 1456 1460 1464 1463 1462 1460 1463 1463 1467 1469 1471 1472 1472 1468 1465
1494 1488 1482 1474 1469 1463 1459 1453 1448 1445 1440 1437 1434 1430 1428 1427 1426 1422 1421 1423 1423 1427 1424 1420 1424 1429 1433 1434 1439 1444 1448 1453 1456 1460 1462 1464 1460 1461 1464 1465 1466 1472 1464 1466 1469 1476 1478
1492 1487 1479 1472 1466 1460 1455 1451 1445 1442 1437 1433 1429 1426 1423 1421 1413 1420 1422 1422 1421 1425 1410 1418 1423 1425 1430 1433 1436 1445 1448 1452 1452 1454 1460 1462 1459 1462 1465 1463 1464 1468 1468 1471 1473 1478 1478
1489 1484 1477 1470 1464 1458 1453 1448 1442 1438 1433 1429 1425 1420 1414 1410 1407 1411 1419 1422 1423 1423 1405 1411 1417 1422 1428 1432 1435 1442 1448 1452 1453 1452 1455 1457 1459 1461 1462 1463 1465 1469 1471 1473 1476 1478 1485
1487 1482 1475 1469 1463 1457 1451 1446 1439 1435 1429 1425 1419 1413 1409 1406 1405 1407 1416 1420 1425 1410 1408 1414 1414 1419 1425 1430 1437 1442 1447 1452 1453 1464 1466 1461 1461 1461 1463 1465 1466 1470 1476 1490 1489 1483 1481
1486 1479 1473 1467 1461 1455 1450 1443 1438 1432 1427 1421 1415 1408 1406 1405 1406 1408 1416 1421 1406 1402 1405 1405 1412 1421 1426 1430 1438 1442 1447 1453 1451 1453 1458 1464 1462 1458 1461 1464 1467 1471 1474 1487 1475 1472 1456
1484 1477 1471 1465 1460 1453 1448 1442 1435 1429 1423 1417 1411 1407 1406 1407 1409 1410 1412 1415 1405 1403 1400 1407 1416 1424 1428 1430 1433 1441 1446 1448 1448 1450 1455 1456 1456 1450 1458 1461 1464 1471 1478 1471 1478 1466 1477
1482 1476 1470 1464 1458 1452 1446 1440 1433 1426 1418 1412 1409 1408 1408 1410 1413 1416 1417 1407 1411 1405 1400 1407 1411 1414 1425 1429 1431 1435 1442 1440 1444 1446 1448 1451 1457 1454 1457 1460 1462 1465 1465 1479 1483 1489 1467
1481 1475 1470 1463 1457 1451 1445 1438 1431 1423 1414 1407 1408 1410 1414 1415 1417 1418 1418 1411 1411 1410 1406 1410 1408 1412 1415 1425 1427 1434 1438 1434 1438 1442 1448 1450 1455 1463 1464 1462 1461 1466 1468 1468 1469 1467 1463
1481 1475 1469 1463 1456 1450 1444 1437 1429 1422 1416 1414 1413 1415 1417 1419 1424 1422 1416 1412 1415 1415 1409 1405 1407 1409 1415 1422 1427 1430 1432 1433 1435 1439 1445 1451 1457 1470 1462 1452 1454 1454 1460 1464 1473 1466 1456
1480 1475 1469 1463 1456 1451 1444 1437 1429 1423 1420 1418 1418 1421 1422 1421 1420 1417 1418 1419 1419 1415 1410 1407 1407 1407 1415 1421 1428 1424 1428 1437 1437 1440 1444 1450 1461 1469 1459 1453 1452 1454 1452 1452 1456 1460 1455
1479 1475 1470 1463 1457 1451 1444 1438 1431 1425 1422 1422 1423 1425 1425 1422 1419 1420 1418 1418 1416 1413 1410 1409 1410 1411 1415 1421 1418 1427 1435 1440 1441 1442 1444 1447 1451 1458 1462 1451 1453 1461 1453 1450 1452 1454 1438
1478 1474 1469 1464 1458 1452 1445 1439 1433 1427 1424 1423 1424 1425 1425 1425 1420 1420 1418 1419 1418 1414 1415 1414 1415 1414 1417 1424 1428 1430 1434 1442 1444 1446 1447 1450 1460 1454 1451 1447 1449 1450 1447 1444 1450 1443 1439
1477 1473 1468 1463 1458 1453 1447 1441 1435 1428 1425 1424 1425 1425 1423 1420 1418 1419 1423 1423 1419 1417 1417 1416 1419 1421 1421 1423 1429 1431 1434 1436 1439 1445 1448 1449 1457 1452 1452 1439 1440 1441 1434 1430 1427 1427 1423
1476 1471 1467 1463 1458 1453 1448 1443 1439 1434 1429 1427 1426 1425 1425 1422 1420 1419 1421 1422 1419 1421 1424 1422 1423 1424 1427 1431 1432 1433 1434 1435 1437 1441 1445 1448 1455 1453 1452 1433 1432 1428 1420 1423 1424 1420 1418
1475 1470 1466 1462 1458 1453 1449 1445 1440 1439 1437 1435 1431 1430 1426 1424 1422 1421 1420 1421 1422 1423 1425 1427 1426 1426 1434 1434 1434 1434 1435 1437 1439 1442 1443 1449 1451 1450 1450 1434 1432 1413 1410 1411 1413 1411 1409
1473 1470 1466 1461 1456 1452 1448 1444 1441 1437 1435 1432 1431 1432 1429 1423 1422 1421 1420 1422 1425 1426 1427 1429 1431 1434 1434 1435 1433 1434 1435 1438 1436 1439 1443 1447 1449 1447 1447 1436 1425 1408 1406 1408 1411 1409 1404
1470 1467 1465 1461 1456 1451 1448 1443 1440 1437 1434 1432 1431 1431 1430 1430 1423 1422 1422 1423 1424 1425 1430 1433 1434 1435 1435 1435 1436 1435 1430 1423 1435 1440 1439 1445 1447 1449 1444 1442 1430 1407 1405 1405 1408 1407 1401
1467 1464 1461 1457 1454 1450 1447 1443 1439 1436 1432 1430 1430 1430 1430 1428 1423 1421 1421 1422 1425 1426 1430 1432 1434 1436 1437 1436 1436 1437 1432 1424 1426 1431 1437 1442 1442 1445 1443 1441 1426 1406 1404 1405 1410 1409 1398
1464 1461 1458 1454 1450 1447 1445 1441 1438 1435 1431 1429 1428 1429 1429 1428 1424 1422 1423 1423 1426 1427 1428 1434 1436 1437 1439 1436 1438 1436 1435 1426 1425 1422 1426 1431 1436 1437 1440 1439 1434 1402 1401 1406 1402 1398 1397
1459 1457 1455 1451 1447 1444 1442 1439 1435 1433 1430 1428 1427 1427 1426 1428 1425 1423 1425 1426 1427 1428 1429 1431 1432 1432 1434 1435 1438 1438 1436 1429 1422 1423 1412 1422 1416 1420 1422 1417 1401 1399 1399 1399 1397 1397 1395
Wind_Speed
19 20 22 22 23 23 23 22 24 23 25 24 24 24 25 23 22 22 19 19 16 16 18 12 10 7 8 8 11 10 5 15 18 17 17 15 17 14 11 10 16 12 16 17 15 18 12
21 23 24 25 26 24 24 25 27 26 25 25 25 26 26 27 24 22 19 19 17 14 20 13 11 9 12 11 10 3 3 5 10 14 20 18 10 14 9 14 9 6 11 15 21 12 13
24 23 24 25 26 26 27 27 31 28 25 26 26 27 26 27 25 23 20 21 16 16 20 16 12 11 10 14 5 9 12 6 7 14 17 17 7 5 1 4 10 7 8 11 15 14 10
24 26 27 27 28 28 30 30 31 29 25 25 27 26 27 27 24 22 20 18 20 12 19 19 13 11 9 9 21 8 9 9 7 8 17 17 12 2 2 4 2 5 10 8 10 19 17
24 25 28 28 29 31 32 31 30 29 26 27 26 25 25 25 23 19 18 18 22 16 11 21 16 13 8 10 17 17 10 11 9 5 11 12 11 4 7 3 2 6 6 12 9 5 4
25 27 28 30 33 31 33 33 32 30 27 26 25 23 23 24 19 18 19 16 18 16 22 18 10 10 13 12 13 14 14 11 13 13 9 9 5 4 5 7 6 7 10 8 8 5 4
25 27 30 29 30 31 32 30 29 28 26 26 24 21 24 24 18 18 18 12 7 9 28 9 12 3 17 17 16 14 17 15 13 15 7 13 4 7 12 10 13 12 8 8 11 9 6
29 28 29 31 31 33 31 30 29 27 25 24 22 23 20 20 20 17 15 6 13 2 6 22 8 12 15 18 12 17 20 11 10 8 5 3 7 10 11 11 10 8 7 10 9 9 10
29 30 31 33 34 33 31 29 27 26 24 21 23 21 18 23 23 21 14 15 14 15 5 16 13 17 18 11 10 22 23 13 11 9 8 8 2 13 11 7 4 6 6 7 9 11 10
30 30 32 34 33 31 29 28 26 26 24 24 19 21 26 24 20 9 12 10 8 10 2 10 10 13 11 10 7 20 22 13 6 11 9 7 7 5 4 9 7 6 3 6 5 6 4
31 31 34 32 30 30 28 28 26 26 25 21 23 25 26 30 22 19 2 5 3 8 4 14 9 13 18 12 21 15 22 9 11 9 7 4 4 5 5 6 6 3 7 5 5 6 9
30 30 31 30 30 29 29 28 27 26 23 22 24 29 31 18 15 22 12 6 7 3 4 5 8 13 15 16 5 18 15 4 2 5 8 5 4 1 4 3 4 6 2 4 6 4 5
28 28 29 31 30 30 30 29 29 27 23 23 30 35 17 12 5 12 13 17 3 4 4 8 9 13 17 13 10 15 11 6 5 4 4 4 8 3 4 4 5 3 2 2 2 3 6
26 29 30 30 29 30 29 32 31 26 23 27 31 19 9 3 8 20 19 3 5 4 2 7 14 16 11 15 8 13 12 7 9 6 6 6 4 15 9 9 4 7 4 3 5 3 3
27 30 30 28 29 30 30 30 32 26 29 27 25 8 7 12 12 17 9 3 3 3 8 10 18 7 9 11 7 10 10 8 10 10 4 6 3 3 11 6 9 5 6 2 3 5 2
27 30 31 28 27 29 30 31 30 30 30 23 13 5 10 19 14 15 1 2 4 5 14 16 5 6 10 14 8 9 12 12 8 14 9 4 3 3 8 6 10 6 3 1 1 3 6
26 27 28 30 28 30 30 32 31 30 32 13 10 5 6 15 10 6 1 2 4 9 20 1 9 7 10 14 9 9 11 6 12 12 12 3 2 2 5 8 9 6 5 4 3 3 4
26 26 28 28 27 29 31 32 30 34 22 10 7 3 8 11 3 4 1 2 1 4 1 1 6 10 13 14 8 10 11 4 14 9 13 5 3 3 8 7 12 8 8 9 3 5 4
24 26 28 29 25 28 31 31 27 29 14 8 5 6 4 4 1 1 3 4 4 3 1 1 4 7 15 10 8 5 10 6 6 5 11 7 3 2 2 3 8 5 7 11 11 7 13
24 26 26 27 25 28 30 31 26 21 8 4 4 2 3 4 4 3 1 4 3 8 11 9 8 7 12 7 3 6 7 2 6 3 8 11 3 5 3 2 4 4 5 8 7 6 12
23 24 24 26 24 26 27 29 25 21 8 3 3 1 1 1 3 6 2 5 3 3 4 3 2 8 10 4 6 5 9 8 5 7 4 2 2 4 7 11 9 11 15 17 16 18 14
21 22 23 22 23 24 24 26 24 24 12 11 3 3 4 2 4 10 1 0 1 7 7 5 10 7 5 5 5 7 6 5 5 7 6 3 3 3 5 13 16 18 17 17 15 16 15
21 21 23 23 23 22 22 24 22 20 20 10 8 5 2 1 4 1 2 3 4 4 9 11 6 5 9 7 7 6 6 3 5 6 8 5 2 1 4 7 10 7 5 6 8 11 10
20 21 21 22 21 20 20 21 20 17 13 11 7 6 4 1 2 4 6 5 5 5 6 4 4 4 4 3 4 4 4 1 2 4 4 3 4 2 4 8 2 3 9 9 8 11 10
20 21 22 22 22 22 20 19 18 17 15 11 1 2 4 2 5 2 2 4 11 6 7 8 6 6 2 1 1 2 2 1 6 6 9 8 1 2 2 3 8 7 3 2 4 4 8
19 20 21 23 22 22 21 19 16 16 13 5 6 1 2 4 2 7 6 8 4 4 3 4 5 1 3 1 2 0 0 2 4 3 2 10 9 3 3 3 3 1 4 4 5 2 2
20 19 20 21 21 22 20 18 15 16 13 7 2 4 3 4 4 3 1 2 4 2 3 4 4 2 2 0 1 1 2 5 2 6 5 3 4 8 7 3 7 7 3 8 2 4 6
20 19 19 21 20 21 20 18 15 15 11 7 2 3 1 3 6 4 3 3 6 3 1 6 3 2 1 1 1 1 2 2 3 5 6 6 6 4 3 4 7 2 1 3 3 6 9
20 19 19 21 21 20 19 19 16 15 10 7 2 4 4 6 4 1 3 4 3 4 4 8 2 4 3 2 2 2 1 3 3 2 2 4 6 4 6 5 7 17 4 7 6 8 6
Wind_Direction
349 342 339 338 335 333 332 327 328 325 324 323 324 322 319 322 311 308 296 268 257 272 244 255 251 227 194 213 253 262 280 214 221 213 202 206 203 204 224 226 240 229 249 252 262 275 294
341 337 335 332 328 327 329 322 323 322 318 317 315 316 315 316 311 307 295 275 254 260 236 239 230 204 198 231 224 194 203 189 206 206 205 195 206 222 250 248 222 234 268 268 267 267 258
333 329 327 328 325 326 325 319 319 316 316 314 312 309 310 310 307 296 290 263 266 244 234 237 215 204 228 226 204 233 221 171 203 213 213 195 211 171 176 319 319 310 306 280 260 252 243
332 330 330 332 327 322 322 318 312 313 313 310 309 307 309 305 304 297 302 279 259 227 225 219 205 191 239 239 232 243 193 188 176 197 215 207 194 166 122 69 242 243 246 261 248 221 227
328 329 330 327 324 321 319 313 314 317 317 314 312 309 309 309 308 296 301 290 255 239 237 199 193 188 236 216 219 216 182 181 181 169 182 189 168 173 174 177 223 233 268 223 258 189 157
335 330 329 328 325 322 316 320 323 324 318 314 313 311 311 314 309 303 302 285 255 255 229 176 181 189 221 203 170 175 162 169 162 165 157 167 137 179 217 186 195 207 210 251 270 154 180
329 331 328 328 325 325 329 328 325 323 320 318 316 312 312 307 304 304 303 322 237 224 188 172 182 241 155 146 158 164 159 151 163 183 179 195 186 189 196 219 243 286 303 304 311 328 320
329 336 331 325 328 332 330 327 327 326 323 320 322 323 319 314 305 300 295 275 251 298 254 189 228 201 153 144 139 162 161 147 177 187 175 153 247 223 230 213 232 274 294 286 295 300 337
335 334 329 331 334 333 330 330 329 328 325 326 328 320 309 310 305 296 285 258 280 273 282 203 200 177 159 168 146 165 174 150 172 195 169 184 171 213 253 255 239 260 259 285 300 313 289
334 334 331 337 338 337 336 335 335 334 331 330 314 315 318 312 314 319 262 250 249 235 255 156 188 173 171 171 134 164 180 161 176 196 190 241 234 159 204 236 213 245 6 336 305 325 266
336 335 335 340 341 340 339 338 334 333 328 320 319 319 315 303 271 258 278 313 213 213 200 146 158 161 165 177 126 172 178 187 183 188 172 219 221 185 229 221 223 239 60 355 311 305 324
335 332 341 344 344 342 339 339 337 335 327 321 321 319 322 318 287 242 217 262 143 200 219 129 144 166 155 155 101 151 179 145 339 219 188 215 65 223 209 228 279 83 342 222 255 256 252
341 339 342 343 345 343 343 338 343 334 326 322 324 324 314 311 271 176 168 141 196 239 176 130 152 155 160 155 130 152 164 177 158 124 202 247 238 172 275 196 154 209 101 298 235 213 236
340 341 344 344 346 344 345 343 341 335 329 326 328 337 343 113 147 160 157 126 256 94 177 173 135 145 161 151 146 164 166 175 229 232 125 188 217 193 176 218 172 194 182 199 273 235 297
336 343 346 346 345 348 346 342 338 337 334 331 337 6 11 146 154 166 145 168 316 95 135 134 133 129 131 180 139 155 175 191 200 216 203 166 250 137 150 188 222 136 200 215 308 268 282
338 345 349 349 346 349 347 343 343 338 339 332 327 58 61 149 158 160 190 107 309 256 122 144 90 167 156 183 144 168 176 196 197 198 222 19 182 186 153 194 208 193 145 87 6 264 264
343 347 348 346 349 350 349 346 345 349 353 353 115 66 94 152 164 84 304 73 348 317 147 313 143 141 149 164 151 177 178 151 188 186 202 178 217 89 84 211 195 189 229 236 8 239 259
348 347 345 350 351 351 351 349 352 356 16 56 51 73 134 131 61 244 177 72 19 259 188 46 138 142 153 159 149 179 184 269 191 157 190 170 147 222 218 242 205 209 197 206 201 235 230
349 349 347 348 352 353 353 353 1 6 22 44 55 69 150 339 228 126 6 145 163 272 9 63 86 132 150 153 151 200 109 69 105 189 160 161 204 252 277 188 232 223 229 220 229 284 247
346 348 348 348 356 355 355 357 2 14 61 62 80 84 325 312 280 119 142 128 106 356 46 68 110 115 151 79 97 119 100 106 161 152 71 153 174 219 203 129 103 266 270 248 232 257 267
347 346 348 348 355 352 358 359 2 19 37 120 56 140 240 310 108 105 316 103 113 83 59 34 83 111 137 126 97 134 119 124 169 131 126 116 217 271 268 280 284 270 265 258 248 249 254
344 347 348 347 348 351 359 358 3 17 24 65 43 14 334 314 133 109 30 112 122 69 3 57 100 80 30 106 37 153 142 166 163 161 183 186 265 343 288 266 253 254 252 252 262 264 265
340 345 345 352 355 353 353 354 6 15 28 23 359 9 319 18 201 197 130 203 93 120 27 34 103 108 74 48 64 75 59 71 84 152 191 160 174 327 258 326 295 269 226 226 239 253 263
336 339 343 345 348 348 344 352 358 7 16 360 322 315 312 152 261 252 148 152 99 35 103 78 30 61 82 78 94 92 80 103 121 151 124 172 189 228 281 308 289 169 198 206 241 272 264
333 335 337 339 345 347 345 345 351 352 358 355 151 291 327 303 197 209 169 147 101 88 100 94 56 93 125 296 196 195 162 165 217 199 192 186 242 278 273 305 271 287 142 228 200 292 271
328 330 333 334 340 345 348 345 348 349 348 30 89 18 281 298 198 185 194 167 150 141 136 103 104 88 34 319 47 30 145 265 129 135 170 194 214 263 348 307 276 90 155 150 152 246 17
323 327 329 330 336 340 345 343 344 340 344 3 84 21 219 291 324 267 122 158 81 70 86 116 143 81 160 11 156 296 287 336 222 182 165 171 196 220 231 268 281 277 117 148 317 288 348
321 321 325 325 332 334 337 339 337 333 337 0 261 9 294 270 318 33 67 101 135 268 174 148 131 130 92 178 188 195 247 274 291 145 175 171 171 193 187 215 262 202 337 341 267 331 336
318 320 323 322 330 328 329 331 328 323 328 338 297 319 252 236 274 209 178 180 157 100 114 164 2 138 142 112 178 35 295 291 299 283 217 208 206 185 193 216 261 323 334 357 335 322 321